Regional Weather Roundup
Issued by NWS Lake Charles, LA

Home | Current Version | Previous Version | Text Only | Print | Product List | Glossary On
Versions: 1 2 3 4 5 6 7 8 9 10 11 12 13 14 15 16 17 18 19 20 21 22 23 24 25 26 27 28 29 30 31 32 33 34 35 36 37 38 39 40 41 42 43 44 45 46 47 48 49 50
218
ASUS44 KLCH 261810
RWRLCH
REGIONAL WEATHER ROUNDUP
NATIONAL WEATHER SERVICE LAKE CHARLES LA
100 PM CDT MON JUN 26 2017

Note: "fair" indicates few or no clouds below 12,000 feet with no
significant weather and/or obstructions to visibility.


ACROSS SOUTHEAST TEXAS

CITY           SKY/WX    TMP DP  RH WIND       PRES   REMARKS
BEAUMONT       PTSUNNY   86  73  66 MISG      30.08F
BEAUMONT CITY    N/A    N/A N/A N/A MISG      30.09F
ORANGE         PTCLDY    87  75  68 E5        30.10F
JASPER         MOSUNNY   87  73  64 E5        30.12F
$$

ACROSS CENTRAL LOUISIANA

CITY           SKY/WX    TMP DP  RH WIND       PRES   REMARKS
LEESVILLE      MOSUNNY   85  67  55 CALM      30.10F
FULLERTON      FAIR      86  67  52 VRB5      30.08F
ALEXANDRIA INT SUNNY     85  69  58 VRB7      30.10F
ESLER FIELD    SUNNY     83  66  56 E6        30.12F
DERIDDER       FAIR      85  69  59 CALM      30.12F
OAKDALE        CLEAR     85  70  61 N6        30.10F
OPELOUSAS      FAIR      82  70  66 E5        30.10F
$$

ACROSS SOUTHWEST AND SOUTH CENTRAL LOUISIANA

CITY           SKY/WX    TMP DP  RH WIND       PRES   REMARKS
SULPHUR        PTCLDY    89  74  62 E8        30.09F
LAKE CHARLES   MOSUNNY   86  77  74 E8        30.09F
CHENNAULT INT  PTSUNNY   86  75  70 NE7       30.09F
CAMERON PHI    PTCLDY    82  75  78 SE8       30.07F
DEQUINCY       FAIR      85  71  63 CALM      30.09F
JENNINGS       FAIR     N/A N/A N/A CALM      30.10F
LAFAYETTE      MOSUNNY   85  73  67 VRB6      30.10F
NEW IBERIA     MOSUNNY   86  71  60 CALM      30.09F
ABBEVILLE      NOT AVBL
PATTERSON      CLOUDY    86  76  71 VRB5      30.09F
SALT POINT       N/A     85  74  69 VRB6      30.06F
$$

SELECTED SITES ACROSS THE REGION

CITY           SKY/WX    TMP DP  RH WIND       PRES   REMARKS
HOUSTON BUSH   MOSUNNY   86  73  65 E8        30.08F
HOUSTON HOBBY  MOSUNNY   89  74  60 E10       30.07F
GALVESTON      MOSUNNY   85  77  77 E13       30.07F
COLLEGE STAT   MOSUNNY   84  72  67 E3        30.09F
CONROE         CLOUDY    85  72  65 NE3       30.08F
HUNTSVILLE     MOSUNNY   89  69  51 E5        30.09F
LUFKIN         SUNNY     86  71  60 E6        30.10F
SHREVEPORT     MOSUNNY   85  63  47 CALM      30.12F
MONROE         SUNNY     84  65  52 VRB6      30.15F
NATCHEZ MS     NOT AVBL
BATON ROUGE    CLOUDY    82  69  64 NE8       30.11F
N.O. INTL ARPT MOSUNNY   84  70  62 NE9       30.09F
SLIDELL        CLOUDY    85  66  53 NE6       30.09F
$$

MARINE REPORTS

STATION/POSITION TIME  SKY/WX   TEMP    WIND        PRES    VSBY
                                AIR SEA DIR/SP/G
                 (UTC)          (F)     (DEG/KT/KT) (MB)    (MI)
BUOY 30 S HIGH I 1650            81 84   80/ 14/ 16 1018.4
WVE H/P(F/S)=  2/ 6

SEA RIM ST PARK  1800            83     130/ 10/ 11 1018.9F
PORT ARTHUR      1748            82 84   90/  5/  6 1019.0F
SABINE PASS N    1742            82 85  110/  6/  9 1020.2F
TEXAS POINT      NOT AVBL
CALCASIEU PASS   1748            82 84  120/  7/  9   N/A
LK CHARLES BEACH 1748            85 82              1019.3F
MARSH ISLAND     NOT AVBL
FRESH WATER LOCK 1748            82 86  110/  7/  9 1018.9F
AMERADA PASS     1748            83 83   80/  5/  8 1018.6F
$$




USA.gov is the U.S. government's official web portal to all federal, state and local government web resources and services.